Location: Herm
(49.4830°N, 2.4500°W)
Time: 20:06:57
(UTC+00:00)

Envisat - Pass Details

Date: 10 October 2022
Orbit: 763 x 765 km, 98.2° (Epoch: 06 December)

Event Time Altitude Azimuth Distance (km) Brightness Sun altitude
Rises 05:35:16 0° 14° (NNE) 3,246 6.6 -18.2°
Reaches altitude 10° 05:37:36 10° 16° (NNE) 2,315 5.8 -17.9°
Maximum altitude 05:42:42 80° 103° (ESE) 783 3.1 -17.0°
Drops below altitude 10° 05:47:47 10° 192° (SSW) 2,297 5.3 -16.2°
Sets 05:50:05 0° 193° (SSW) 3,218 6.0 -15.9°
